Погода в Новобирилюссах

Россия / Красноярский край     56°57′05″N   90°40′50″E
темп.,
°C
ветер,
м/с
пор.,
м/с
влажн.,
%
обл.,
%
осадки,
мм/ч
давл.,
гПа
погр.,
м
5 марта, пт
пт501:00−7ююз41284100 0.1 1017646
04:00−6ююз51292100 0.1 1016744
07:00−5ююз51190100 0.5 1016626
10:00−4ююз51281100 0.0 1014562
13:00−2ююз487995 0.0 1013619
16:00−2ююз4108285 0.0 1011802
19:00−4ююз5139387 0.1 1012744
22:00−3юз51484100 1.0 10121298
6 марта, сб
сб601:00−6юз51387100 1.2 10161056
04:00−6юз41294100 0.1 1015969
07:00−5юз51289100 0.3 10151086
10:00−5юз51188100 0.1 10141014
13:00−3юз61192100 0.4 10121073
16:00−3юз61391100 0.9 10101219
19:00−3юз51587100 1.1 10091610
22:00−4юз61489100 0.4 10091250
7 марта, вс
вс701:00−5юз51292100 0.4 10081006
04:00−5юз51293100 0.4 10071002
07:00−4юз51389100 0.6 1008807
10:00−4юз61389100 0.1 10081241
13:00−4з7147183 0.5 10111669
16:00−5зюз612741 0.1 10141559
19:00−9зюз3138624 0.1 1017610
22:00−10зюз31195100 0.1 1020877
8 марта, пн
пн801:00−11юз3109597 0.3 1023436
04:00−14юз369784 0.0 1024125
07:00−17ю269779 0.1 1024108
10:00−11ююв368682 0.0 1021241
13:00−5ююв4108191 0.0 1016597
16:00−3ю51186100 0.0 1011541
19:00−2ю51384100 0.0 1007524
22:00−1ююз61580100 0.0 1004922
9 марта, вт
вт901:00−1юз71790100 0.1 10041591
04:00−4зюз71584100 0.3 10091419
07:00−11зюз5138996 0.3 1015739
10:00−10зюз61287100 0.0 1018903
13:00−9зюз61085100 0.1 10211023
16:00−8зюз51082100 0.1 10221232
19:00−10юз3892100 0.2 1023325
22:00−13ююз379250 0.0 1024142